Location: Santa Clara
(37.3540°N, 121.9540°W)
Time: 12:50:27
(UTC-08:00)

Envisat - Visible Passes

Search period start: 22 January 2022 00:00
Search period end: 01 February 2022 00:00
Orbit: 764 x 766 km, 98.2° (Epoch: 22 January)

Date Brightness Start Highest point End Pass type
(mag) Time Alt. Az. Time Alt. Az. Time Alt. Az.
22 Jan 5.4 03:54:47 10° NE 03:58:16 18° E 04:01:43 10° SE visible
22 Jan 3.2 05:32:38 10° N 05:37:28 46° WNW 05:42:17 10° SW visible
23 Jan 3.0 04:55:36 10° NNE 05:00:42 77° ESE 05:05:46 10° S visible
23 Jan 4.7 06:37:11 10° NW 06:39:00 12° WNW 06:40:50 10° W visible
24 Jan 4.5 04:19:10 10° NNE 04:23:44 33° E 04:28:15 10° SSE visible
24 Jan 3.9 05:58:24 10° NNW 06:02:34 26° WNW 06:06:44 10° WSW visible
25 Jan 5.8 03:43:58 10° ENE 03:46:34 14° E 03:49:10 10° ESE visible
25 Jan 2.9 05:20:56 10° N 05:25:56 59° WNW 05:30:54 10° SSW visible
26 Jan 3.4 04:44:04 10° NNE 04:49:05 59° E 04:54:05 10° S visible
26 Jan 4.5 06:24:41 10° NNW 06:27:34 15° WNW 06:30:26 10° W visible
27 Jan 5.0 04:07:53 10° NE 04:12:04 25° E 04:16:13 10° SSE visible
27 Jan 3.6 05:46:33 10° N 05:51:04 33° WNW 05:55:34 10° SW visible
28 Jan 6.0 03:34:03 10° E 03:34:51 10° E 03:35:39 10° E visible
28 Jan 2.8 05:09:17 10° N 05:14:22 77° WNW 05:19:25 10° SSW visible
29 Jan 3.9 04:32:35 10° NNE 04:37:28 45° E 04:42:19 10° S visible
29 Jan 4.2 06:12:33 10° NNW 06:16:06 19° WNW 06:19:39 10° WSW visible
30 Jan 5.3 03:56:43 10° NE 04:00:23 20° E 04:04:01 10° SE visible
30 Jan 3.3 05:34:46 10° N 05:39:33 42° WNW 05:44:18 10° SW visible
31 Jan 2.9 04:57:40 10° NNE 05:02:47 83° ESE 05:07:51 10° S visible
31 Jan 4.8 06:39:41 10° NW 06:41:02 11° WNW 06:42:24 10° WNW visible
